This demonstration page uses our WeatherBlox Daily Observations layout. Learn more.

Left ArrowRight Arrow

Hourly Observations for November 21, 2019

Temp ( °F °C ) Dew Point ( °F °C ) Humidity (%) Winds ( mph kmh ) Pressure ( in mb ) Visibility ( mi km ) Precip ( " mm )
12:10 am 00:10 Cloudy with Light Rain 37 3 36 2 93 93 NW 20 31 29.89 1012 4 6 0.00 0.00
12:31 am 00:31 Cloudy 38 3.3 35 1.7 89 89 NW 18 30 29.89 1012 10 16 0.00 0.00
12:53 am 00:53 Cloudy 38 3.3 35 1.7 89 89 NNW 20 31 29.84 1011 10 16 0.00 0.00
1:07 am 01:07 Cloudy 37 3 34 1 87 87 NW 20 31 29.90 1013 10 16 0.00 0.00
1:36 am 01:36 Cloudy 37 3 34 1 87 87 NNW 23 37 29.92 1013 10 16 0.00 0.00
1:50 am 01:50 Cloudy 37 3 34 1 87 87 NW 21 33 29.94 1014 10 16 0.00 0.00
1:53 am 01:53 Cloudy 37 2.8 33 0.6 86 86 NW 21 33 29.88 1012 10 16 0.00 0.00
2:53 am 02:53 Cloudy 37 2.8 32 0 82 82 NNW 21 33 29.92 1013 10 16 0.00 0.00
3:01 am 03:01 Cloudy 37 2.8 32 0 82 82 NNW 24 39 29.98 1015 10 16 0.00 0.00
3:20 am 03:20 Cloudy 37 3 32 0 81 81 NNW 23 37 29.98 1015 10 16 0.00 0.00
3:53 am 03:53 Cloudy 36 2 N/A N/A NNW 22 35 29.94 1014 10 16 0.00 0.00
4:53 am 04:53 Cloudy 36 2.2 30 -1.1 79 79 NNW 21 33 29.99 1016 10 16 0.00 0.00
5:53 am 05:53 Cloudy 35 1.7 30 -1.1 82 82 NNW 18 30 30.04 1017 10 16 0.00 0.00
6:53 am 06:53 Cloudy 35 1.7 29 -1.7 78 78 NNW 23 37 30.07 1018 10 16 0.00 0.00
7:45 am 07:45 Cloudy 35 1.7 30 -1.1 82 82 NNW 20 31 30.14 1021 10 16 0.00 0.00
7:53 am 07:53 Cloudy 34 1.1 29 -1.7 82 82 N 24 39 30.10 1019 10 16 0.00 0.00
8:05 am 08:05 Cloudy 34 1.1 29 -1.7 82 82 N 23 37 30.14 1021 10 16 0.00 0.00
8:34 am 08:34 Cloudy 34 1 28 -2 81 81 N 24 39 30.15 1021 10 16 0.00 0.00
8:53 am 08:53 Cloudy 34 1.1 29 -1.7 82 82 N 16 26 30.13 1020 10 16 0.00 0.00
9:53 am 09:53 Cloudy 34 1.1 28 -2.2 79 79 N 16 26 30.16 1022 10 16 0.00 0.00
10:53 am 10:53 Cloudy 34 1.1 28 -2.2 79 79 NNW 17 28 30.19 1022 9 14 0.00 0.00
11:53 am 11:53 Cloudy 35 1.7 28 -2.2 76 76 NNW 17 28 30.20 1023 10 16 0.00 0.00
12:07 pm 12:07 Cloudy 33 0.6 27 -2.8 78 78 NNW 16 26 30.24 1024 9 14 0.00 0.00
12:25 pm 12:25 Cloudy 34 1.1 27 -2.8 76 76 NNW 17 28 30.26 1025 10 16 0.00 0.00
12:53 pm 12:53 Cloudy 33 0.6 27 -2.8 78 78 NNW 17 28 30.22 1023 9 14 0.00 0.00
1:01 pm 13:01 Cloudy 32 0 27 -2.8 82 82 NNW 18 30 30.26 1025 8 13 0.00 0.00
1:53 pm 13:53 Cloudy 34 1.1 26 -3.3 73 73 NNW 17 28 30.21 1023 10 16 0.00 0.00
2:03 pm 14:03 Cloudy 33 0.6 26 -3.3 75 75 NNW 17 28 30.24 1024 10 16 0.00 0.00
2:53 pm 14:53 Cloudy 32 0 25 -3.9 75 75 NNW 18 30 30.21 1023 10 16 0.00 0.00
3:32 pm 15:32 Cloudy 32 0 25 -3.9 75 75 NNW 15 24 30.27 1025 10 16 0.00 0.00
3:42 pm 15:42 Cloudy 32 0 25 -3.9 75 75 N 15 24 30.27 1025 10 16 0.00 0.00
3:53 pm 15:53 Cloudy 32 0 25 -3.9 75 75 NNW 14 22 30.23 1024 10 16 0.00 0.00
4:14 pm 16:14 Cloudy 31 -0.6 25 -3.9 79 79 N 16 26 30.28 1025 10 16 0.00 0.00
4:53 pm 16:53 Cloudy 31 -0.6 24 -4.4 76 76 N 15 24 30.24 1024 10 16 0.00 0.00
5:08 pm 17:08 Cloudy 30 -1.1 23 -5 75 75 N 16 26 30.28 1026 10 16 0.00 0.00
5:53 pm 17:53 Cloudy 30 -1.1 24 -4.4 79 79 N 16 26 30.23 1024 10 16 0.00 0.00
6:15 pm 18:15 Mostly Cloudy 29 -1.7 23 -5 78 78 N 15 24 30.28 1025 10 16 0.00 0.00
6:53 pm 18:53 Cloudy 29 -1.7 23 -5 78 78 N 10 17 30.25 1024 10 16 0.00 0.00
7:53 pm 19:53 Cloudy 29 -1.7 23 -5 78 78 N 14 22 30.28 1025 10 16 0.00 0.00
8:53 pm 20:53 Clear 29 -1.7 22 -5.6 75 75 NNE 10 17 30.29 1026 10 16 0.00 0.00
9:53 pm 21:53 Cloudy 29 -1.7 22 -5.6 75 75 NNE 9 15 30.31 1027 10 16 0.00 0.00
10:53 pm 22:53 Mostly Clear 29 -1.7 22 -5.6 75 75 NNE 8 13 30.31 1026 10 16 0.00 0.00
11:53 pm 23:53 Mostly Cloudy 29 -1.7 22 -5.6 75 75 N 8 13 30.31 1027 10 16 0.00 0.00

Powered by AerisWeather